Simultaneous Nadir Overpasses (SNOs) Predictions

Prediction of SNOs between AQUA and NPP Satellite Orbit:

Table of predicted SNOs for the next 14.0 days since TLE Epoch: 5/11/2012
Index Date (AQUA) Time (AQUA) Lat,Lon (AQUA) SZA (AQUA ) Date (NPP) Time (NPP) Lat,Lon (NPP) SZA (NPP ) Distance(km) Time Diff (sec)
1 05/13/2012 07:11:14 76.92, -45.75 77.82 05/13/2012 07:10:53 76.92, -45.80 77.85 1.38 21
2 05/13/2012 08:00:22 -77.82, 125.48 103.30 05/13/2012 08:01:17 -77.83, 125.60 103.37 2.82 55
3 05/15/2012 22:39:19 -73.87,-106.17 99.31 05/15/2012 22:38:05 -73.95,-106.60 99.20 16.30 74
4 05/15/2012 23:27:34 77.33, 71.68 76.71 05/15/2012 23:27:36 77.34, 71.76 76.68 2.11 2
5 05/16/2012 00:13:04 -80.66, -39.87 116.67 05/16/2012 00:14:17 -79.96, -42.14 117.00 88.06 73
6 05/18/2012 14:54:55 -76.53, 16.98 102.90 05/18/2012 14:54:03 -76.53, 16.92 102.85 1.72 52
7 05/18/2012 15:43:58 77.53,-171.66 75.89 05/18/2012 15:44:23 77.53,-171.59 75.85 1.65 25
8 05/21/2012 07:11:16 -76.90, 134.15 103.88 05/21/2012 07:10:46 -76.90, 134.15 103.86 0.07 30
9 05/21/2012 08:00:28 77.52, -55.83 75.36 05/21/2012 08:01:16 77.51, -55.94 75.35 2.82 48
10 05/23/2012 23:27:44 -77.01,-109.59 104.50 05/23/2012 23:27:36 -77.00,-109.67 104.47 2.14 8




NCC Satellite Simultaneous Nadir Overpasses (SNOs) Prediction Service
